QPF
0.00 0.00 0.00 0.00 0.00 0.00 0.00 0.00 0.00 0.00 0.00 0.00 0.00 0.00 0.00 0.00 0.00 0.00 0.00 0.00 0.00 0.00 0.00 0.00 0.01 0.01 0.01 0.00 0.00 0.00 0.01 0.01 0.01 0.00 0.00 0.00 0.00 0.00 0.00 0.00 0.00 0.00 0.00 0.00
0.00 0.00 0.00 0.00 0.00 0.00 0.00 0.00 0.00 0.00 0.00 0.00 0.00 0.00 0.00 0.00 0.00 0.00 0.00 0.00 0.00 0.00 0.00 0.00 0.00 0.01 0.00 0.00 0.00 0.00 0.00 0.01 0.01 0.00 0.00 0.00 0.00 0.00 0.00 0.00 0.00 0.00 0.00 0.00
0.00 0.00 0.00 0.00 0.00 0.00 0.00 0.00 0.00 0.00 0.00 0.00 0.00 0.00 0.00 0.00 0.00 0.00 0.00 0.00 0.00 0.00 0.00 0.00 0.00 0.01 0.00 0.00 0.00 0.00 0.00 0.01 0.01 0.01 0.00 0.00 0.00 0.00 0.00 0.00 0.00 0.00 0.00 0.00
0.00 0.00 0.00 0.00 0.00 0.00 0.00 0.00 0.00 0.00 0.00 0.00 0.00 0.00 0.00 0.00 0.00 0.00 0.00 0.00 0.00 0.00 0.00 0.00 0.00 0.00 0.00 0.00 0.00 0.00 0.00 0.01 0.01 0.01 0.01 0.00 0.00 0.00 0.00 0.00 0.00 0.00 0.00 0.00
0.00 0.00 0.00 0.00 0.00 0.00 0.00 0.00 0.00 0.00 0.00 0.00 0.00 0.00 0.00 0.00 0.00 0.00 0.00 0.00 0.00 0.00 0.00 0.00 0.00 0.00 0.00 0.00 0.00 0.01 0.01 0.01 0.01 0.01 0.01 0.00 0.00 0.00 0.00 0.00 0.00 0.00 0.00 0.00
0.00 0.00 0.00 0.00 0.00 0.00 0.00 0.00 0.00 0.00 0.00 0.00 0.00 0.00 0.00 0.00 0.00 0.00 0.00 0.00 0.00 0.00 0.00 0.00 0.00 0.00 0.00 0.00 0.00 0.01 0.01 0.01 0.00 0.00 0.00 0.00 0.00 0.00 0.00 0.00 0.00 0.00 0.00 0.00
0.00 0.00 0.00 0.00 0.00 0.00 0.00 0.00 0.00 0.00 0.00 0.00 0.00 0.00 0.00 0.00 0.00 0.00 0.00 0.00 0.00 0.00 0.00 0.00 0.00 0.00 0.00 0.00 0.00 0.00 0.01 0.01 0.00 0.00 0.00 0.00 0.00 0.00 0.00 0.00 0.00 0.00 0.00 0.00
0.00 0.00 0.00 0.00 0.00 0.00 0.00 0.00 0.00 0.00 0.00 0.00 0.00 0.00 0.00 0.00 0.00 0.00 0.00 0.00 0.00 0.00 0.00 0.00 0.00 0.00 0.00 0.00 0.00 0.00 0.00 0.01 0.00 0.00 0.00 0.00 0.00 0.00 0.00 0.00 0.00 0.00 0.00 0.00
0.00 0.00 0.00 0.00 0.00 0.00 0.00 0.00 0.00 0.00 0.00 0.00 0.00 0.00 0.00 0.00 0.00 0.00 0.00 0.00 0.00 0.00 0.00 0.00 0.00 0.00 0.00 0.00 0.00 0.00 0.00 0.01 0.01 0.00 0.00 0.00 0.00 0.00 0.00 0.00 0.00 0.00 0.00 0.00
0.00 0.00 0.00 0.00 0.00 0.00 0.00 0.00 0.00 0.00 0.00 0.00 0.00 0.00 0.00 0.00 0.00 0.00 0.00 0.00 0.00 0.00 0.00 0.00 0.00 0.00 0.00 0.00 0.00 0.00 0.00 0.00 0.00 0.00 0.00 0.00 0.00 0.00 0.00 0.00 0.00 0.00 0.00 0.00
0.00 0.00 0.00 0.00 0.00 0.00 0.00 0.00 0.00 0.00 0.00 0.00 0.00 0.00 0.00 0.00 0.00 0.00 0.00 0.00 0.00 0.00 0.00 0.00 0.00 0.00 0.00 0.00 0.00 0.00 0.00 0.00 0.00 0.00 0.00 0.00 0.00 0.00 0.00 0.00 0.00 0.00 0.00 0.00
0.00 0.00 0.00 0.00 0.00 0.00 0.00 0.00 0.00 0.00 0.00 0.00 0.00 0.00 0.00 0.00 0.00 0.00 0.00 0.00 0.00 0.00 0.00 0.00 0.00 0.00 0.00 0.00 0.00 0.00 0.00 0.00 0.00 0.00 0.00 0.00 0.00 0.00 0.00 0.00 0.00 0.00 0.00 0.00
0.00 0.00 0.00 0.00 0.00 0.00 0.00 0.00 0.00 0.00 0.00 0.00 0.00 0.00 0.00 0.00 0.00 0.00 0.00 0.00 0.00 0.00 0.00 0.00 0.00 0.00 0.00 0.00 0.00 0.00 0.00 0.00 0.00 0.00 0.00 0.00 0.00 0.00 0.00 0.00 0.00 0.00 0.00 0.00
0.00 0.00 0.00 0.00 0.00 0.00 0.00 0.00 0.00 0.00 0.00 0.00 0.00 0.00 0.00 0.00 0.00 0.00 0.00 0.00 0.00 0.00 0.00 0.00 0.00 0.00 0.00 0.00 0.00 0.00 0.00 0.00 0.00 0.00 0.00 0.00 0.00 0.00 0.00 0.00 0.00 0.00 0.00 0.00
0.00 0.00 0.00 0.00 0.00 0.00 0.00 0.00 0.00 0.00 0.00 0.00 0.00 0.00 0.00 0.00 0.00 0.00 0.00 0.00 0.00 0.00 0.00 0.00 0.00 0.00 0.00 0.00 0.00 0.00 0.00 0.00 0.00 0.00 0.00 0.00 0.00 0.00 0.00 0.00 0.00 0.00 0.00 0.00
0.00 0.00 0.00 0.00 0.00 0.00 0.00 0.00 0.00 0.00 0.00 0.00 0.00 0.00 0.00 0.00 0.00 0.00 0.00 0.00 0.00 0.00 0.00 0.00 0.00 0.00 0.00 0.00 0.00 0.00 0.00 0.00 0.00 0.00 0.00 0.00 0.00 0.00 0.00 0.00 0.00 0.00 0.00 0.00
0.00 0.00 0.00 0.00 0.00 0.00 0.00 0.00 0.00 0.00 0.00 0.00 0.00 0.00 0.00 0.00 0.00 0.00 0.00 0.00 0.00 0.00 0.00 0.00 0.00 0.00 0.00 0.00 0.00 0.00 0.00 0.00 0.00 0.00 0.00 0.00 0.00 0.00 0.00 0.00 0.00 0.00 0.00 0.00
0.00 0.00 0.00 0.00 0.00 0.00 0.00 0.00 0.00 0.00 0.00 0.00 0.00 0.00 0.00 0.00 0.00 0.00 0.00 0.00 0.00 0.00 0.00 0.00 0.00 0.00 0.00 0.00 0.00 0.00 0.00 0.00 0.00 0.00 0.00 0.00 0.00 0.00 0.00 0.00 0.00 0.00 0.00 0.01
0.00 0.00 0.00 0.00 0.00 0.00 0.00 0.00 0.00 0.00 0.00 0.00 0.00 0.00 0.00 0.00 0.00 0.00 0.00 0.00 0.00 0.00 0.00 0.00 0.00 0.00 0.00 0.00 0.00 0.00 0.00 0.00 0.00 0.00 0.00 0.00 0.00 0.00 0.00 0.00 0.00 0.00 0.00 0.00
0.00 0.00 0.00 0.00 0.00 0.00 0.00 0.00 0.00 0.00 0.00 0.00 0.00 0.00 0.00 0.00 0.00 0.00 0.00 0.00 0.00 0.00 0.00 0.00 0.00 0.00 0.00 0.00 0.00 0.00 0.00 0.00 0.00 0.00 0.00 0.00 0.00 0.00 0.00 0.00 0.00 0.00 0.01 0.01
0.00 0.00 0.00 0.00 0.00 0.00 0.00 0.00 0.00 0.00 0.00 0.00 0.00 0.00 0.00 0.00 0.00 0.00 0.00 0.00 0.00 0.00 0.00 0.00 0.00 0.00 0.00 0.00 0.00 0.00 0.00 0.00 0.00 0.00 0.00 0.00 0.00 0.00 0.00 0.00 0.01 0.01 0.01 0.01
0.00 0.00 0.00 0.00 0.00 0.00 0.00 0.00 0.00 0.00 0.00 0.00 0.00 0.00 0.00 0.00 0.00 0.00 0.00 0.00 0.00 0.00 0.00 0.00 0.00 0.00 0.00 0.00 0.00 0.00 0.00 0.00 0.00 0.00 0.00 0.00 0.00 0.00 0.00 0.01 0.01 0.01 0.01 0.01
0.00 0.00 0.00 0.00 0.00 0.00 0.00 0.00 0.00 0.00 0.00 0.00 0.00 0.00 0.00 0.00 0.00 0.00 0.00 0.00 0.00 0.00 0.00 0.00 0.00 0.00 0.00 0.00 0.00 0.00 0.00 0.00 0.00 0.00 0.00 0.00 0.00 0.00 0.01 0.01 0.01 0.01 0.01 0.01
0.00 0.00 0.00 0.00 0.00 0.00 0.00 0.00 0.00 0.00 0.00 0.00 0.00 0.00 0.00 0.00 0.00 0.00 0.00 0.00 0.00 0.00 0.00 0.00 0.00 0.00 0.00 0.00 0.00 0.00 0.00 0.00 0.00 0.00 0.00 0.00 0.00 0.00 0.01 0.01 0.01 0.01 0.01 0.01
0.00 0.00 0.00 0.00 0.00 0.00 0.00 0.00 0.00 0.00 0.00 0.00 0.00 0.00 0.00 0.00 0.00 0.00 0.00 0.00 0.00 0.00 0.00 0.00 0.00 0.00 0.00 0.00 0.00 0.00 0.00 0.00 0.00 0.00 0.00 0.00 0.00 0.00 0.01 0.01 0.01 0.01 0.01 0.01
0.00 0.00 0.00 0.00 0.00 0.00 0.00 0.00 0.00 0.00 0.00 0.00 0.00 0.00 0.00 0.00 0.00 0.00 0.00 0.00 0.00 0.00 0.00 0.00 0.00 0.00 0.00 0.00 0.00 0.00 0.00 0.00 0.00 0.00 0.00 0.00 0.00 0.01 0.01 0.01 0.01 0.01 0.02 0.02
0.00 0.00 0.00 0.00 0.00 0.00 0.00 0.00 0.00 0.00 0.00 0.00 0.00 0.00 0.00 0.00 0.00 0.00 0.00 0.00 0.00 0.00 0.00 0.00 0.00 0.00 0.00 0.00 0.00 0.00 0.00 0.00 0.00 0.00 0.00 0.00 0.01 0.01 0.01 0.01 0.02 0.02 0.02 0.02
MSLP
1014.17 1014.60 1014.97 1015.27 1015.47 1015.56 1015.54 1015.42 1015.23 1015.00 1014.76 1014.57 1014.45 1014.43 1014.52 1014.73 1015.05 1015.45 1015.89 1016.36 1016.81 1017.23 1017.60 1017.91 1018.17 1018.38 1018.56 1018.70 1018.83 1018.94 1019.03 1019.11 1019.16 1019.20 1019.21 1019.19 1019.15 1019.08 1018.97 1018.84 1018.66 1018.45 1018.19 1017.88
1014.28 1014.53 1014.68 1014.72 1014.63 1014.44 1014.18 1013.87 1013.56 1013.29 1013.09 1012.99 1013.02 1013.17 1013.43 1013.80 1014.24 1014.73 1015.23 1015.74 1016.22 1016.66 1017.07 1017.43 1017.76 1018.06 1018.33 1018.56 1018.76 1018.93 1019.06 1019.15 1019.20 1019.22 1019.20 1019.16 1019.10 1019.02 1018.91 1018.78 1018.62 1018.42 1018.17 1017.88
1014.40 1014.47 1014.38 1014.15 1013.79 1013.34 1012.85 1012.37 1011.94 1011.63 1011.46 1011.45 1011.60 1011.89 1012.31 1012.82 1013.37 1013.95 1014.52 1015.07 1015.58 1016.06 1016.50 1016.92 1017.30 1017.67 1018.01 1018.31 1018.58 1018.80 1018.96 1019.07 1019.12 1019.13 1019.10 1019.05 1018.97 1018.88 1018.78 1018.65 1018.50 1018.31 1018.07 1017.79
1014.46 1014.34 1014.03 1013.56 1012.96 1012.29 1011.60 1010.97 1010.45 1010.09 1009.93 1009.98 1010.23 1010.64 1011.18 1011.80 1012.46 1013.13 1013.76 1014.36 1014.92 1015.43 1015.91 1016.37 1016.81 1017.23 1017.62 1017.98 1018.30 1018.55 1018.75 1018.87 1018.93 1018.95 1018.91 1018.85 1018.78 1018.69 1018.59 1018.47 1018.32 1018.13 1017.90 1017.62
1014.38 1014.08 1013.59 1012.93 1012.14 1011.29 1010.46 1009.72 1009.13 1008.74 1008.58 1008.66 1008.97 1009.45 1010.08 1010.78 1011.53 1012.26 1012.96 1013.62 1014.22 1014.78 1015.30 1015.80 1016.28 1016.74 1017.18 1017.58 1017.93 1018.22 1018.44 1018.59 1018.67 1018.69 1018.67 1018.62 1018.55 1018.47 1018.38 1018.27 1018.12 1017.93 1017.69 1017.40
1014.10 1013.65 1013.02 1012.22 1011.32 1010.38 1009.46 1008.66 1008.02 1007.61 1007.45 1007.54 1007.87 1008.39 1009.05 1009.81 1010.60 1011.39 1012.15 1012.85 1013.51 1014.11 1014.68 1015.23 1015.75 1016.25 1016.72 1017.15 1017.52 1017.84 1018.08 1018.25 1018.36 1018.40 1018.41 1018.38 1018.33 1018.26 1018.18 1018.07 1017.92 1017.72 1017.46 1017.14
1013.58 1013.02 1012.29 1011.44 1010.50 1009.53 1008.60 1007.79 1007.16 1006.74 1006.57 1006.65 1006.97 1007.49 1008.16 1008.92 1009.73 1010.55 1011.35 1012.10 1012.80 1013.46 1014.08 1014.67 1015.23 1015.76 1016.25 1016.71 1017.10 1017.44 1017.71 1017.90 1018.04 1018.11 1018.15 1018.15 1018.12 1018.07 1017.98 1017.87 1017.70 1017.48 1017.20 1016.84
1012.80 1012.17 1011.42 1010.57 1009.66 1008.74 1007.88 1007.12 1006.52 1006.12 1005.96 1006.02 1006.31 1006.79 1007.43 1008.16 1008.96 1009.78 1010.60 1011.38 1012.13 1012.83 1013.50 1014.13 1014.72 1015.28 1015.80 1016.27 1016.69 1017.04 1017.33 1017.56 1017.72 1017.83 1017.90 1017.92 1017.91 1017.86 1017.78 1017.65 1017.46 1017.21 1016.89 1016.49
1011.78 1011.13 1010.40 1009.62 1008.81 1008.00 1007.25 1006.59 1006.07 1005.72 1005.57 1005.61 1005.86 1006.29 1006.87 1007.55 1008.31 1009.11 1009.92 1010.72 1011.50 1012.24 1012.94 1013.61 1014.24 1014.82 1015.36 1015.85 1016.28 1016.65 1016.96 1017.21 1017.40 1017.54 1017.63 1017.68 1017.67 1017.63 1017.53 1017.37 1017.15 1016.86 1016.50 1016.06
1010.59 1009.95 1009.28 1008.60 1007.93 1007.28 1006.68 1006.16 1005.74 1005.46 1005.33 1005.37 1005.58 1005.95 1006.45 1007.07 1007.78 1008.54 1009.33 1010.13 1010.92 1011.68 1012.41 1013.10 1013.76 1014.36 1014.91 1015.41 1015.85 1016.24 1016.57 1016.84 1017.05 1017.22 1017.32 1017.37 1017.37 1017.31 1017.19 1017.00 1016.75 1016.41 1016.01 1015.54
1009.31 1008.68 1008.10 1007.54 1007.02 1006.54 1006.11 1005.73 1005.44 1005.24 1005.16 1005.20 1005.38 1005.69 1006.13 1006.68 1007.33 1008.04 1008.80 1009.59 1010.37 1011.14 1011.89 1012.59 1013.25 1013.86 1014.42 1014.93 1015.38 1015.78 1016.12 1016.40 1016.63 1016.81 1016.92 1016.97 1016.96 1016.88 1016.73 1016.51 1016.22 1015.85 1015.41 1014.92
1008.02 1007.43 1006.91 1006.46 1006.08 1005.75 1005.47 1005.24 1005.07 1004.96 1004.93 1004.99 1005.16 1005.43 1005.82 1006.32 1006.91 1007.58 1008.30 1009.06 1009.83 1010.60 1011.34 1012.04 1012.70 1013.31 1013.87 1014.37 1014.83 1015.23 1015.58 1015.87 1016.11 1016.29 1016.40 1016.45 1016.42 1016.32 1016.15 1015.89 1015.57 1015.17 1014.72 1014.21
1006.85 1006.27 1005.80 1005.43 1005.14 1004.92 1004.76 1004.64 1004.56 1004.53 1004.55 1004.64 1004.82 1005.08 1005.45 1005.92 1006.47 1007.10 1007.80 1008.53 1009.28 1010.02 1010.75 1011.44 1012.08 1012.68 1013.23 1013.73 1014.18 1014.58 1014.93 1015.23 1015.47 1015.65 1015.77 1015.81 1015.77 1015.65 1015.45 1015.18 1014.84 1014.43 1013.97 1013.47
1005.91 1005.32 1004.85 1004.50 1004.25 1004.08 1003.97 1003.91 1003.89 1003.91 1003.98 1004.11 1004.31 1004.59 1004.95 1005.41 1005.95 1006.57 1007.24 1007.96 1008.68 1009.40 1010.10 1010.77 1011.39 1011.97 1012.51 1013.00 1013.44 1013.84 1014.19 1014.50 1014.75 1014.93 1015.05 1015.08 1015.04 1014.91 1014.71 1014.43 1014.08 1013.67 1013.22 1012.74
1005.30 1004.67 1004.16 1003.76 1003.48 1003.28 1003.16 1003.10 1003.10 1003.14 1003.23 1003.38 1003.61 1003.92 1004.31 1004.78 1005.34 1005.96 1006.62 1007.32 1008.03 1008.73 1009.40 1010.05 1010.65 1011.21 1011.73 1012.21 1012.65 1013.05 1013.41 1013.73 1013.98 1014.17 1014.29 1014.33 1014.29 1014.16 1013.96 1013.68 1013.34 1012.95 1012.52 1012.06
1005.09 1004.39 1003.78 1003.29 1002.91 1002.62 1002.42 1002.29 1002.24 1002.26 1002.35 1002.52 1002.77 1003.11 1003.54 1004.05 1004.62 1005.26 1005.93 1006.63 1007.33 1008.01 1008.66 1009.28 1009.87 1010.41 1010.92 1011.40 1011.85 1012.26 1012.63 1012.96 1013.23 1013.43 1013.56 1013.61 1013.57 1013.45 1013.26 1013.00 1012.68 1012.31 1011.90 1011.46
1005.29 1004.50 1003.77 1003.14 1002.59 1002.15 1001.81 1001.57 1001.43 1001.38 1001.44 1001.60 1001.87 1002.24 1002.69 1003.24 1003.84 1004.50 1005.19 1005.89 1006.58 1007.25 1007.89 1008.50 1009.07 1009.62 1010.13 1010.62 1011.08 1011.50 1011.89 1012.24 1012.53 1012.75 1012.88 1012.94 1012.91 1012.81 1012.62 1012.38 1012.08 1011.73 1011.35 1010.93
1005.87 1004.97 1004.10 1003.29 1002.57 1001.94 1001.42 1001.02 1000.75 1000.62 1000.61 1000.74 1000.99 1001.37 1001.85 1002.42 1003.05 1003.72 1004.42 1005.12 1005.81 1006.48 1007.11 1007.72 1008.29 1008.84 1009.37 1009.87 1010.36 1010.81 1011.22 1011.59 1011.89 1012.12 1012.27 1012.33 1012.31 1012.21 1012.04 1011.81 1011.52 1011.20 1010.84 1010.44
1006.69 1005.69 1004.68 1003.71 1002.79 1001.98 1001.28 1000.71 1000.30 1000.05 999.96 1000.03 1000.25 1000.61 1001.08 1001.65 1002.29 1002.96 1003.66 1004.36 1005.04 1005.70 1006.33 1006.94 1007.53 1008.09 1008.64 1009.18 1009.69 1010.17 1010.61 1010.99 1011.31 1011.54 1011.69 1011.75 1011.73 1011.62 1011.45 1011.23 1010.96 1010.66 1010.32 1009.94
1007.56 1006.48 1005.37 1004.26 1003.19 1002.21 1001.35 1000.64 1000.09 999.72 999.54 999.54 999.71 1000.02 1000.47 1001.00 1001.61 1002.26 1002.94 1003.61 1004.28 1004.93 1005.56 1006.17 1006.77 1007.36 1007.94 1008.50 1009.04 1009.55 1010.01 1010.41 1010.73 1010.96 1011.10 1011.14 1011.10 1010.99 1010.81 1010.59 1010.34 1010.05 1009.73 1009.37
1008.28 1007.16 1005.98 1004.79 1003.63 1002.55 1001.58 1000.76 1000.11 999.65 999.38 999.30 999.40 999.65 1000.03 1000.51 1001.06 1001.66 1002.28 1002.92 1003.55 1004.17 1004.79 1005.40 1006.01 1006.62 1007.23 1007.82 1008.38 1008.91 1009.38 1009.78 1010.10 1010.31 1010.43 1010.45 1010.39 1010.26 1010.07 1009.85 1009.60 1009.34 1009.04 1008.72
1008.66 1007.55 1006.37 1005.17 1003.99 1002.87 1001.87 1001.00 1000.30 999.78 999.44 999.29 999.31 999.49 999.79 1000.18 1000.65 1001.17 1001.71 1002.28 1002.86 1003.44 1004.04 1004.64 1005.25 1005.87 1006.49 1007.10 1007.68 1008.22 1008.69 1009.08 1009.38 1009.57 1009.66 1009.66 1009.57 1009.42 1009.22 1009.00 1008.77 1008.53 1008.27 1007.98
1008.60 1007.55 1006.43 1005.29 1004.17 1003.10 1002.13 1001.28 1000.58 1000.04 999.67 999.47 999.42 999.51 999.71 1000.00 1000.37 1000.78 1001.24 1001.72 1002.23 1002.76 1003.31 1003.89 1004.49 1005.11 1005.73 1006.34 1006.92 1007.46 1007.92 1008.29 1008.56 1008.73 1008.79 1008.76 1008.65 1008.48 1008.29 1008.08 1007.86 1007.65 1007.44 1007.21
1008.06 1007.12 1006.13 1005.12 1004.12 1003.17 1002.30 1001.53 1000.88 1000.36 999.99 999.75 999.64 999.65 999.76 999.94 1000.20 1000.50 1000.85 1001.24 1001.66 1002.13 1002.63 1003.17 1003.74 1004.34 1004.95 1005.55 1006.12 1006.63 1007.08 1007.43 1007.67 1007.81 1007.85 1007.80 1007.68 1007.51 1007.32 1007.13 1006.96 1006.79 1006.64 1006.47
1007.16 1006.36 1005.53 1004.69 1003.86 1003.07 1002.34 1001.68 1001.12 1000.66 1000.30 1000.05 999.90 999.84 999.86 999.94 1000.09 1000.28 1000.52 1000.82 1001.16 1001.56 1002.00 1002.49 1003.03 1003.60 1004.18 1004.75 1005.30 1005.79 1006.20 1006.53 1006.75 1006.87 1006.90 1006.84 1006.72 1006.57 1006.41 1006.25 1006.12 1006.01 1005.91 1005.81
1006.05 1005.40 1004.74 1004.09 1003.44 1002.82 1002.24 1001.72 1001.25 1000.85 1000.53 1000.28 1000.09 999.98 999.92 999.92 999.98 1000.08 1000.23 1000.45 1000.72 1001.05 1001.44 1001.88 1002.37 1002.90 1003.45 1003.99 1004.50 1004.96 1005.35 1005.65 1005.86 1005.97 1005.99 1005.95 1005.85 1005.73 1005.61 1005.50 1005.42 1005.36 1005.32 1005.28
1004.94 1004.43 1003.92 1003.42 1002.93 1002.46 1002.02 1001.60 1001.22 1000.88 1000.59 1000.34 1000.14 999.98 999.87 999.81 999.80 999.84 999.93 1000.09 1000.30 1000.59 1000.93 1001.34 1001.79 1002.28 1002.78 1003.28 1003.76 1004.19 1004.55 1004.84 1005.04 1005.15 1005.20 1005.18 1005.12 1005.04 1004.96 1004.91 1004.87 1004.87 1004.88 1004.89
Thickness
5720 5728 5729 5727 5728 5728 5719 5710 5700 5702 5702 5708 5712 5712 5710 5707 5703 5700 5697 5696 5695 5693 5693 5694 5694 5694 5694 5694 5694 5693 5691 5688 5687 5686 5684 5683 5681 5679 5677 5675 5673 5671 5668 5666
5720 5729 5729 5726 5729 5728 5725 5721 5714 5710 5707 5719 5717 5713 5708 5705 5703 5699 5696 5695 5694 5693 5692 5691 5691 5691 5691 5690 5690 5689 5687 5685 5683 5682 5680 5677 5675 5673 5671 5669 5666 5664 5660 5658
5702 5718 5720 5710 5726 5727 5725 5726 5720 5709 5714 5717 5712 5711 5710 5707 5704 5700 5697 5695 5693 5691 5689 5688 5688 5688 5687 5686 5686 5684 5682 5680 5678 5676 5674 5671 5670 5667 5664 5661 5659 5655 5653 5650
5696 5705 5692 5717 5738 5739 5731 5731 5732 5729 5725 5724 5723 5719 5716 5712 5707 5701 5698 5695 5692 5689 5688 5687 5686 5685 5684 5682 5680 5678 5675 5674 5672 5670 5667 5665 5662 5659 5657 5654 5650 5647 5645 5642
5685 5687 5698 5720 5737 5737 5727 5724 5734 5730 5726 5723 5720 5712 5707 5711 5710 5705 5701 5696 5692 5689 5686 5684 5682 5680 5678 5675 5673 5670 5668 5667 5666 5664 5661 5658 5655 5652 5649 5646 5643 5639 5636 5633
5683 5685 5686 5715 5739 5746 5733 5716 5733 5732 5725 5719 5713 5696 5701 5710 5708 5703 5699 5695 5691 5687 5683 5680 5677 5675 5672 5668 5665 5663 5662 5661 5659 5657 5654 5650 5647 5644 5641 5638 5634 5631 5627 5624
5682 5682 5696 5726 5739 5738 5708 5716 5735 5733 5728 5721 5715 5715 5715 5711 5706 5701 5696 5692 5688 5683 5678 5675 5672 5669 5664 5661 5658 5658 5656 5654 5652 5649 5646 5643 5639 5636 5632 5629 5625 5621 5617 5615
5677 5678 5693 5733 5733 5724 5725 5735 5735 5731 5728 5723 5717 5714 5711 5707 5701 5696 5690 5686 5682 5677 5672 5669 5666 5662 5657 5654 5653 5652 5649 5646 5643 5640 5638 5636 5630 5626 5622 5618 5613 5609 5606 5604
5697 5703 5722 5731 5734 5737 5735 5731 5730 5727 5724 5719 5712 5708 5704 5700 5695 5690 5686 5681 5676 5670 5665 5661 5659 5655 5650 5648 5646 5643 5640 5637 5634 5632 5628 5624 5620 5616 5611 5607 5602 5599 5595 5593
5700 5711 5721 5727 5731 5733 5733 5731 5729 5726 5721 5715 5708 5703 5698 5692 5687 5683 5679 5674 5669 5663 5658 5653 5651 5648 5645 5642 5639 5635 5631 5628 5625 5622 5618 5614 5610 5606 5601 5596 5592 5589 5586 5583
5695 5706 5713 5718 5722 5724 5725 5724 5721 5718 5714 5709 5703 5696 5691 5686 5681 5676 5672 5667 5662 5657 5651 5647 5643 5640 5637 5634 5631 5626 5622 5619 5615 5612 5608 5604 5600 5595 5591 5588 5583 5579 5576 5573
5691 5702 5701 5707 5715 5718 5716 5713 5712 5708 5703 5700 5697 5691 5686 5680 5675 5670 5665 5659 5654 5648 5644 5640 5636 5632 5629 5626 5622 5617 5612 5609 5605 5601 5597 5593 5589 5587 5584 5579 5577 5573 5570 5566
5704 5708 5705 5708 5709 5710 5708 5706 5704 5701 5697 5691 5688 5685 5679 5672 5667 5662 5657 5652 5647 5642 5637 5632 5628 5624 5621 5618 5613 5608 5603 5599 5595 5591 5587 5583 5579 5575 5573 5572 5569 5565 5561 5557
5702 5701 5697 5699 5698 5700 5699 5698 5695 5691 5688 5685 5680 5674 5669 5663 5658 5653 5649 5645 5640 5635 5630 5625 5620 5616 5613 5609 5604 5599 5595 5591 5586 5581 5577 5572 5568 5565 5561 5558 5556 5554 5551 5547
5693 5694 5692 5693 5691 5690 5689 5685 5681 5677 5675 5672 5669 5664 5659 5654 5649 5645 5641 5636 5631 5625 5621 5617 5612 5608 5605 5601 5596 5590 5586 5581 5576 5572 5567 5563 5558 5554 5550 5547 5543 5541 5539 5536
5682 5683 5683 5681 5680 5679 5677 5674 5670 5667 5664 5661 5658 5654 5651 5646 5641 5635 5631 5626 5621 5616 5612 5608 5604 5601 5597 5592 5587 5581 5576 5574 5569 5562 5557 5552 5548 5543 5539 5536 5532 5529 5526 5523
5669 5667 5668 5668 5669 5668 5667 5665 5663 5659 5656 5652 5649 5645 5641 5635 5629 5625 5621 5617 5613 5609 5604 5600 5596 5593 5588 5583 5577 5572 5566 5562 5560 5553 5546 5542 5537 5533 5529 5525 5521 5518 5515 5511
5665 5664 5664 5662 5660 5658 5656 5655 5653 5650 5647 5644 5640 5635 5630 5625 5620 5616 5612 5607 5602 5598 5595 5591 5587 5583 5579 5573 5567 5562 5556 5550 5546 5541 5536 5532 5527 5523 5518 5513 5510 5507 5504 5500
5653 5653 5653 5652 5651 5649 5647 5645 5643 5640 5638 5635 5630 5625 5621 5617 5612 5607 5602 5596 5592 5587 5585 5582 5579 5574 5568 5563 5558 5551 5545 5540 5535 5530 5526 5522 5517 5511 5506 5502 5498 5495 5492 5488
5640 5640 5639 5639 5639 5638 5636 5634 5632 5629 5627 5623 5619 5614 5609 5606 5602 5597 5591 5587 5583 5580 5577 5573 5568 5563 5558 5553 5549 5541 5535 5529 5524 5519 5514 5509 5504 5499 5495 5491 5487 5484 5481 5477
5625 5625 5625 5624 5624 5624 5623 5621 5619 5616 5614 5611 5607 5603 5599 5595 5590 5586 5580 5575 5574 5571 5566 5563 5557 5552 5547 5542 5538 5530 5524 5518 5512 5507 5502 5497 5492 5488 5484 5480 5476 5473 5470 5467
5610 5610 5610 5610 5609 5608 5607 5606 5605 5603 5601 5598 5595 5592 5587 5582 5578 5574 5570 5567 5565 5561 5556 5550 5545 5541 5536 5532 5524 5517 5511 5506 5500 5495 5489 5485 5480 5476 5473 5469 5465 5463 5460 5457
5595 5595 5595 5595 5594 5592 5591 5591 5590 5588 5586 5584 5582 5578 5574 5571 5566 5561 5557 5555 5552 5549 5544 5538 5534 5530 5525 5518 5511 5504 5499 5493 5488 5483 5478 5473 5469 5465 5462 5459 5456 5453 5450 5448
5579 5579 5580 5579 5578 5576 5575 5575 5574 5573 5572 5571 5568 5565 5561 5557 5552 5550 5547 5545 5541 5536 5530 5525 5521 5517 5512 5504 5497 5491 5485 5480 5476 5471 5467 5463 5459 5455 5452 5449 5446 5444 5442 5439
5563 5563 5562 5562 5561 5561 5560 5560 5558 5557 5556 5555 5553 5551 5548 5545 5541 5537 5533 5529 5526 5522 5516 5511 5508 5503 5496 5488 5483 5477 5472 5468 5464 5460 5456 5453 5449 5446 5443 5440 5437 5435 5433 5431
5546 5546 5546 5546 5546 5545 5544 5543 5541 5540 5539 5537 5535 5534 5532 5529 5526 5522 5518 5514 5510 5506 5501 5495 5491 5487 5480 5475 5470 5466 5461 5458 5454 5450 5447 5444 5441 5438 5435 5433 5431 5429 5427 5425
5529 5529 5529 5528 5528 5528 5528 5527 5525 5524 5523 5521 5518 5517 5515 5512 5509 5506 5503 5498 5494 5490 5485 5481 5476 5472 5468 5463 5459 5455 5452 5448 5445 5442 5439 5436 5433 5430 5428 5426 5424 5423 5421 5419